• In India
  • List of Countries
  • For 7 days
  • Water Temperature
  • Satellite Maps
  • Weather Map
  • Weather Widgets
  • user-avatar
    Login

    Hourly Weather Popel'naste

    Today, 21 August, Tuesday

    Time Temperature Precipitation Wind Pressure Humidity
    00:00 +21°C° 0 mm 2 mps 752 mmHg 37%
    01:00 +21°C° 0 mm 1 mps 751 mmHg 38%
    02:00 +21°C° 0 mm 1 mps 751 mmHg 38%
    03:00 +20°C° 0 mm 1 mps 751 mmHg 39%
    04:00 +20°C° 0 mm 1 mps 751 mmHg 39%
    05:00 +20°C° 0 mm 1 mps 751 mmHg 40%
    06:00 +22°C° 0 mm 1 mps 751 mmHg 37%
    07:00 +24°C° 0 mm 1 mps 752 mmHg 34%
    08:00 +26°C° 0 mm 1 mps 752 mmHg 31%
    09:00 +28°C° 0 mm 1 mps 752 mmHg 29%
    10:00 +29°C° 0 mm 1 mps 751 mmHg 26%
    11:00 +31°C° 0 mm 1 mps 751 mmHg 24%
    12:00 +32°C° 0 mm 1 mps 751 mmHg 24%
    13:00 +32°C° 0 mm 1 mps 751 mmHg 24%
    14:00 +34°C° 0 mm 2 mps 750 mmHg 24%
    15:00 +32°C° 0 mm 2 mps 750 mmHg 26%
    16:00 +32°C° 0 mm 2 mps 750 mmHg 27%
    17:00 +32°C° 0 mm 2 mps 749 mmHg 29%
    18:00 +30°C° 0 mm 2 mps 749 mmHg 33%
    19:00 +28°C° 0 mm 2 mps 749 mmHg 38%
    20:00 +27°C° 0 mm 1 mps 749 mmHg 42%
    21:00 +26°C° 0 mm 2 mps 750 mmHg 47%
    22:00 +25°C° 0 mm 2 mps 750 mmHg 53%
    23:00 +24°C° 0 mm 3 mps 750 mmHg 58%

    Tomorrow, 22 August, Wednesday

    Time Temperature Precipitation Wind Pressure Humidity
    00:00 +24°C° 0 mm 3 mps 750 mmHg 65%
    01:00 +22°C° 0 mm 3 mps 750 mmHg 72%
    02:00 +21°C° 0 mm 3 mps 750 mmHg 80%
    03:00 +20°C° 0 mm 3 mps 751 mmHg 82%
    04:00 +20°C° 0 mm 3 mps 751 mmHg 84%
    05:00 +19°C° 0 mm 4 mps 751 mmHg 87%
    06:00 +20°C° 0 mm 4 mps 752 mmHg 79%
    07:00 +21°C° 0 mm 4 mps 752 mmHg 71%
    08:00 +22°C° 0 mm 5 mps 752 mmHg 62%
    09:00 +25°C° 0 mm 5 mps 752 mmHg 56%
    10:00 +26°C° 0 mm 5 mps 753 mmHg 49%
    11:00 +27°C° 0 mm 5 mps 753 mmHg 42%
    12:00 +27°C° 0 mm 5 mps 753 mmHg 40%
    13:00 +28°C° 0 mm 5 mps 753 mmHg 38%
    14:00 +28°C° 0 mm 5 mps 753 mmHg 36%
    15:00 +28°C° 0 mm 5 mps 753 mmHg 37%
    16:00 +27°C° 0 mm 5 mps 753 mmHg 37%
    17:00 +27°C° 0 mm 5 mps 753 mmHg 38%
    18:00 +25°C° 0 mm 5 mps 753 mmHg 42%
    19:00 +22°C° 0 mm 4 mps 754 mmHg 46%
    20:00 +21°C° 0 mm 4 mps 754 mmHg 50%
    21:00 +20°C° 0 mm 4 mps 755 mmHg 52%
    22:00 +19°C° 0 mm 4 mps 755 mmHg 53%
    23:00 +18°C° 0 mm 4 mps 755 mmHg 55%

    Day after tomorrow, 23 August, Thursday

    Time Temperature Precipitation Wind Pressure Humidity
    00:00 +18°C° 0 mm 4 mps 755 mmHg 57%
    01:00 +17°C° 0 mm 3 mps 755 mmHg 59%
    02:00 +16°C° 0 mm 3 mps 755 mmHg 60%
    03:00 +16°C° 0 mm 3 mps 756 mmHg 62%
    04:00 +14°C° 0 mm 3 mps 756 mmHg 64%
    05:00 +13°C° 0 mm 3 mps 756 mmHg 66%
    06:00 +16°C° 0 mm 3 mps 756 mmHg 60%
    07:00 +18°C° 0 mm 3 mps 756 mmHg 55%
    08:00 +20°C° 0 mm 3 mps 756 mmHg 49%
    09:00 +22°C° 0 mm 3 mps 756 mmHg 44%
    10:00 +24°C° 0 mm 3 mps 756 mmHg 38%
    11:00 +25°C° 0 mm 3 mps 756 mmHg 32%
    12:00 +26°C° 0 mm 3 mps 755 mmHg 30%
    13:00 +27°C° 0 mm 3 mps 755 mmHg 28%
    14:00 +28°C° 0 mm 3 mps 755 mmHg 26%
    15:00 +27°C° 0 mm 3 mps 754 mmHg 26%
    16:00 +27°C° 0 mm 3 mps 754 mmHg 27%
    17:00 +27°C° 0 mm 3 mps 754 mmHg 27%
    18:00 +25°C° 0 mm 3 mps 754 mmHg 31%
    19:00 +22°C° 0 mm 3 mps 754 mmHg 34%
    20:00 +20°C° 0 mm 3 mps 754 mmHg 38%
    21:00 +19°C° 0 mm 3 mps 754 mmHg 39%
    22:00 +18°C° 0 mm 3 mps 755 mmHg 41%
    23:00 +18°C° 0 mm 3 mps 755 mmHg 43%

    24 August, Friday

    Time Temperature Precipitation Wind Pressure Humidity
    00:00 +17°C° 0 mm 3 mps 754 mmHg 46%
    01:00 +16°C° 0 mm 3 mps 754 mmHg 48%
    02:00 +16°C° 0 mm 3 mps 754 mmHg 51%
    03:00 +14°C° 0 mm 3 mps 754 mmHg 52%
    04:00 +14°C° 0 mm 3 mps 754 mmHg 53%
    05:00 +14°C° 0 mm 3 mps 754 mmHg 55%
    06:00 +17°C° 0 mm 3 mps 754 mmHg 49%
    07:00 +19°C° 0 mm 3 mps 754 mmHg 44%
    08:00 +21°C° 0 mm 3 mps 754 mmHg 39%
    09:00 +23°C° 0 mm 4 mps 754 mmHg 34%
    10:00 +26°C° 0 mm 4 mps 753 mmHg 29%
    11:00 +28°C° 0 mm 4 mps 753 mmHg 24%
    12:00 +29°C° 0 mm 4 mps 753 mmHg 23%
    13:00 +29°C° 0 mm 4 mps 752 mmHg 22%
    14:00 +30°C° 0 mm 4 mps 752 mmHg 20%
    15:00 +30°C° 0 mm 3 mps 751 mmHg 21%
    16:00 +30°C° 0 mm 3 mps 751 mmHg 23%
    17:00 +29°C° 0 mm 3 mps 751 mmHg 24%
    18:00 +27°C° 0 mm 3 mps 751 mmHg 27%
    19:00 +25°C° 0 mm 3 mps 751 mmHg 30%
    20:00 +22°C° 0 mm 4 mps 751 mmHg 33%
    21:00 +21°C° 0 mm 4 mps 751 mmHg 34%
    22:00 +21°C° 0 mm 4 mps 751 mmHg 35%
    23:00 +20°C° 0 mm 4 mps 751 mmHg 36%

    25 August, Saturday

    Time Temperature Precipitation Wind Pressure Humidity
    00:00 +20°C° 0 mm 4 mps 750 mmHg 37%
    01:00 +19°C° 0 mm 3 mps 750 mmHg 39%
    02:00 +19°C° 0 mm 3 mps 750 mmHg 40%
    03:00 +18°C° 0 mm 3 mps 750 mmHg 40%
    04:00 +18°C° 0 mm 3 mps 750 mmHg 41%
    05:00 +17°C° 0 mm 3 mps 750 mmHg 42%
    06:00 +19°C° 0 mm 3 mps 750 mmHg 39%
    07:00 +21°C° 0 mm 4 mps 750 mmHg 36%
    08:00 +23°C° 0 mm 4 mps 750 mmHg 34%
    09:00 +26°C° 0 mm 4 mps 750 mmHg 31%
    10:00 +28°C° 0 mm 4 mps 750 mmHg 28%
    11:00 +32°C° 0 mm 4 mps 750 mmHg 25%
    12:00 +32°C° 0 mm 4 mps 750 mmHg 24%
    13:00 +33°C° 0 mm 4 mps 749 mmHg 23%
    14:00 +33°C° 0 mm 3 mps 749 mmHg 22%
    15:00 +33°C° 0 mm 3 mps 749 mmHg 23%
    16:00 +31°C° 0 mm 3 mps 748 mmHg 24%
    17:00 +31°C° 0 mm 2 mps 748 mmHg 25%
    18:00 +29°C° 0 mm 3 mps 748 mmHg 28%
    19:00 +27°C° 0 mm 3 mps 749 mmHg 30%
    20:00 +25°C° 0 mm 3 mps 749 mmHg 32%
    21:00 +24°C° 0 mm 3 mps 749 mmHg 33%
    22:00 +22°C° 0 mm 3 mps 749 mmHg 34%
    23:00 +21°C° 0 mm 3 mps 749 mmHg 35%

    26 August, Sunday

    Time Temperature Precipitation Wind Pressure Humidity
    00:00 +21°C° 0 mm 3 mps 749 mmHg 36%
    01:00 +20°C° 0 mm 3 mps 749 mmHg 37%
    02:00 +20°C° 0 mm 2 mps 749 mmHg 39%
    03:00 +19°C° 0 mm 2 mps 749 mmHg 40%
    04:00 +19°C° 0 mm 2 mps 749 mmHg 40%
    05:00 +19°C° 0 mm 2 mps 749 mmHg 41%
    06:00 +21°C° 0 mm 3 mps 749 mmHg 38%
    07:00 +22°C° 0 mm 3 mps 749 mmHg 34%
    08:00 +25°C° 0 mm 3 mps 749 mmHg 31%
    09:00 +27°C° 0 mm 4 mps 749 mmHg 28%
    10:00 +29°C° 0 mm 4 mps 749 mmHg 24%
    11:00 +32°C° 0 mm 5 mps 749 mmHg 21%
    12:00 +32°C° 0 mm 5 mps 748 mmHg 20%
    13:00 +33°C° 0 mm 5 mps 748 mmHg 20%
    14:00 +33°C° 0 mm 4 mps 748 mmHg 19%
    15:00 +33°C° 0 mm 4 mps 748 mmHg 20%
    16:00 +32°C° 0 mm 4 mps 748 mmHg 22%
    17:00 +32°C° 0 mm 4 mps 747 mmHg 23%
    18:00 +29°C° 0 mm 4 mps 747 mmHg 27%
    19:00 +27°C° 0 mm 3 mps 748 mmHg 30%
    20:00 +25°C° 0 mm 3 mps 748 mmHg 33%
    21:00 +24°C° 0 mm 3 mps 748 mmHg 35%
    22:00 +22°C° 0 mm 3 mps 748 mmHg 37%
    23:00 +22°C° 0 mm 3 mps 748 mmHg 39%
    Show more